Regional Weather Roundup
Issued by NWS Sioux Falls, SD

Home | Current Version | Previous Version | Graphics & Text | Print | Product List | Glossary Off
Versions: 1 2 3 4 5 6 7 8 9 10 11 12 13 14 15 16 17 18 19 20 21 22 23 24 25 26 27 28 29 30 31 32 33 34 35 36 37 38 39 40 41 42 43 44 45 46 47 48 49 50

000
ASUS43 KFSD 252302
RWRFSD

WEATHER ROUNDUP FOR SE SOUTH DAKOTA/SW MINNESOTA/NW IOWA
NATIONAL WEATHER SERVICE SIOUX FALLS SD
600 PM CDT FRI JUL 25 2014

NOTE: "FAIR" INDICATES FEW OR NO CLOUDS BELOW 12,000 FEET WITH NO
SIGNIFICANT WEATHER AND OR OBSTRUCTIONS TO VISIBILITY.


SDZ038>040-050-052>070-260000-
SOUTHEAST SOUTH DAKOTA

CITY           SKY/WX    TMP DP  RH WIND       PRES   REMARKS
CHAMBERLAIN    PTSUNNY   87  69  54 N8        29.79S
HURON          CLOUDY    79  68  69 N12       29.78F
MADISON        FAIR      82  72  69 NW8       29.79S
MITCHELL       MOSUNNY   82  70  66 N9        29.79R
SIOUX FALLS    MOSUNNY   86  71  60 N3        29.77F
WINNER         FAIR      93  62  35 NW7       29.80F
YANKTON        SUNNY     86  73  66 E5        29.76R
$$

MNZ071-072-080-081-089-090-097-098-260000-
SOUTHWEST MINNESOTA

CITY           SKY/WX    TMP DP  RH WIND       PRES   REMARKS
FAIRMONT       CLOUDY    79  63  57 S8        29.80S
JACKSON        CLOUDY    79  68  69 S3        29.80F
LUVERNE        SUNNY     82  70  65 CALM      29.78F
MARSHALL       CLOUDY    82  72  69 N7        29.75
MONTEVIDEO     CLOUDY    81  72  74 N5        29.77S
PIPESTONE      SUNNY     82  66  57 CALM      29.79F
REDWOOD FALLS  CLOUDY    84  72  67 W6        29.75F
TRACY          CLOUDY    83  71  69 NW6       29.77F
WINDOM         PTSUNNY   81  70  69 SW3       29.79F
WORTHINGTON    CLOUDY    81  72  74 W3        29.81S
$$

IAZ001>003-012>014-020>022-031-032-NEZ013-014-SDZ071-260000-
NORTHWEST IOWA

CITY           SKY/WX    TMP DP  RH WIND       PRES   REMARKS
CHEROKEE       CLOUDY    79  72  78 CALM      29.78S
DENISON        MOSUNNY   84  73  70 CALM      29.75F
ESTHERVILLE    CLOUDY    77  69  76 S6        29.79F
LE MARS        CLOUDY    82  72  69 CALM      29.78S
ORANGE CITY    CLOUDY    81  70  69 CALM      29.79S
SHELDON        PTSUNNY   81  72  74 CALM      29.78R
SIOUX CITY     PTSUNNY   89  72  56 NE6       29.75F HX  96
SPENCER        CLOUDY    79  70  74 SE3       29.79F
STORM LAKE     CLOUDY    79  73  83 SE6       29.80F
$$

ABBREVIATIONS USED IN REMARKS
   TC - TEMPERATURE IN CELSIUS
  WCI - WIND CHILL INDEX
   HX - HEAT INDEX
  VSB - VISIBILITY



USA.gov is the U.S. government's official web portal to all federal, state and local government web resources and services.